Wind_Speed
9 3 2 3 3 5 3 4 3 3 5 5 7 11 12 15 6 10 28 34 33 14 11 19 26 31 33 33 34 31 29 28 28 29 28 30 31 32 32 33 32 32 31 35
3 4 2 2 5 4 5 3 3 4 11 4 8 17 17 16 11 9 14 22 23 20 13 8 10 19 26 29 31 30 28 27 26 27 29 31 32 33 33 33 35 35 38 38
3 5 6 1 2 3 7 6 1 1 2 6 4 8 13 14 17 16 13 14 18 19 17 14 6 9 15 21 23 25 28 28 27 26 28 30 33 34 35 35 35 37 40 41
3 5 1 2 4 13 13 9 8 6 4 4 7 2 13 16 17 17 17 17 15 18 18 14 13 2 6 13 15 18 24 26 25 25 25 28 30 33 35 36 37 37 40 41
2 1 4 3 3 3 2 4 8 3 8 10 13 13 15 19 16 14 14 16 18 16 14 11 14 10 6 3 13 15 20 21 22 24 27 29 32 34 33 34 37 39 39 41
1 2 3 3 3 6 1 2 4 5 7 9 13 3 2 14 14 12 13 14 14 13 12 11 12 11 7 7 7 14 16 17 22 27 30 29 30 32 34 36 36 35 36 40
2 3 5 2 6 8 4 2 3 4 7 8 3 4 5 11 16 13 12 13 12 12 14 14 12 10 8 8 7 5 4 8 16 22 26 30 33 28 31 34 34 37 40 42
3 3 6 9 3 3 3 3 4 8 9 9 8 7 8 11 13 12 13 13 16 17 19 19 16 13 12 10 9 8 8 8 9 11 18 26 30 34 34 35 36 38 42 45
4 2 5 16 15 13 7 9 9 9 9 8 7 9 9 10 11 12 14 13 15 17 21 22 22 19 16 15 10 8 7 6 6 5 7 11 19 27 32 34 33 34 34 33
3 7 10 15 18 15 11 13 9 8 9 9 9 8 8 8 10 11 12 13 13 15 21 24 23 22 22 19 17 13 10 8 8 5 4 2 3 7 13 20 24 21 17 17
4 4 7 17 14 11 12 10 9 9 11 10 9 10 9 9 10 12 13 11 12 13 15 17 17 18 18 20 17 13 13 13 15 15 14 13 13 13 9 8 3 8 11 8
1 4 7 7 11 8 9 10 9 7 9 10 10 10 10 10 10 9 10 10 11 12 10 11 11 13 16 17 14 14 14 14 16 18 20 23 23 25 25 21 17 16 18 18
5 7 13 12 12 8 8 8 8 8 7 7 8 7 8 9 9 9 9 9 11 12 11 10 11 11 12 12 11 11 14 16 16 18 20 24 28 29 34 33 33 33 31 29
10 7 9 9 7 8 8 7 7 8 9 9 8 6 6 6 6 7 9 10 9 8 9 10 10 10 10 9 8 11 13 17 17 19 20 23 28 32 34 35 36 33 28 25
11 11 10 5 3 6 8 9 8 8 9 9 8 6 6 6 6 7 8 8 9 8 9 10 10 10 9 7 7 11 14 17 19 19 21 23 24 27 28 29 29 29 23 21
5 4 5 6 3 5 7 7 7 7 6 6 5 6 7 7 8 9 9 8 7 10 11 11 11 10 9 7 7 10 14 15 18 20 21 22 23 24 25 25 25 22 19 16
4 5 6 6 6 5 5 6 7 5 4 3 2 3 5 6 8 10 11 11 10 10 11 10 10 8 7 8 9 13 15 16 16 17 18 18 19 19 19 18 18 17 15 12
4 3 4 4 2 4 5 6 5 4 3 1 0 1 4 7 10 11 11 10 10 10 11 12 9 8 9 9 9 12 14 15 15 16 16 15 15 14 13 12 12 12 12 11
4 4 2 1 1 3 3 4 4 3 2 2 2 5 7 9 9 10 9 8 10 12 13 10 8 8 9 10 8 10 11 12 12 13 12 12 12 12 11 11 11 11 12 11
4 4 4 4 3 4 5 6 5 5 6 5 6 7 8 9 8 6 6 8 12 12 9 8 8 8 9 9 7 8 10 10 10 10 9 10 10 10 10 10 10 9 9 9
6 6 5 5 6 7 7 8 6 7 8 5 4 6 7 7 5 5 5 7 10 8 7 7 7 8 8 8 7 7 6 6 7 8 8 8 9 10 10 9 9 9 8 7
7 7 8 7 8 9 9 8 7 7 7 6 6 6 5 5 5 4 6 8 7 6 6 7 8 9 8 7 7 7 7 7 7 8 9 9 9 8 8 8 6 6 6 5
7 8 9 9 10 11 10 9 8 7 6 7 6 5 4 5 6 5 5 7 6 6 7 7 8 7 6 5 5 5 6 7 7 8 8 8 7 7 6 5 4 3 3 2
10 9 9 9 9 8 9 9 8 8 7 7 6 6 5 4 4 6 6 7 6 5 5 6 6 7 6 6 6 6 7 7 7 6 6 5 4 4 3 3 3 1 0 1
10 10 10 8 8 8 7 6 5 5 4 3 4 3 3 4 4 7 6 5 5 5 5 6 6 6 5 5 6 6 6 6 5 4 4 3 2 2 1 1 1 2 3 4
8 8 7 6 6 6 6 5 5 5 4 3 3 4 4 4 4 4 3 3 3 4 4 5 5 4 4 4 4 4 4 4 4 3 2 1 0 1 1 2 3 5 6 7
3 2 1 1 1 2 3 4 5 5 3 2 2 3 3 3 3 3 3 3 2 2 2 3 3 3 3 3 2 2 1 1 1 1 0 2 3 4 4 5 6 7 8 9
Wind_Direction
262 77 248 207 235 221 176 189 159 280 295 7 5 335 308 330 328 304 338 358 11 26 200 216 215 218 220 216 215 217 219 220 220 219 220 219 216 216 223 229 232 233 228 223
266 0 5 239 263 254 222 222 271 317 291 341 344 326 342 339 46 91 339 7 18 41 100 141 223 229 223 223 221 221 223 229 231 229 228 226 225 223 224 229 232 232 233 231
279 345 315 165 264 249 76 25 63 188 304 338 317 357 13 13 42 43 26 48 28 32 50 78 135 198 232 238 235 234 231 231 233 233 234 234 230 231 231 230 233 235 235 237
278 10 44 40 64 96 90 75 57 76 3 327 291 6 50 42 34 23 21 20 31 36 46 58 67 89 252 238 235 238 246 244 242 240 242 243 236 236 235 236 236 238 240 241
125 263 270 150 37 89 94 51 17 7 1 350 327 207 26 19 32 25 23 19 29 29 36 41 56 62 53 173 212 219 234 241 253 259 251 247 243 241 241 241 240 241 243 246
51 260 223 225 113 6 87 134 308 337 21 57 25 63 336 6 14 24 28 32 34 24 35 52 50 49 63 80 132 193 215 225 231 237 249 255 252 249 246 246 245 247 246 246
210 247 277 301 322 330 143 189 310 15 41 27 82 59 12 14 18 17 34 31 42 44 45 45 44 43 40 43 47 34 311 278 258 248 242 242 250 257 253 246 247 247 245 246
187 220 254 353 36 93 165 121 47 42 38 53 50 34 20 15 18 27 39 54 48 53 54 54 51 46 48 52 48 24 3 347 322 282 258 249 245 239 240 239 240 243 241 239
183 189 90 56 70 88 96 85 55 44 19 21 33 37 16 8 18 31 34 40 35 52 61 59 57 53 50 44 41 34 23 354 335 318 288 259 241 234 226 227 226 226 226 227
119 102 72 62 65 78 95 89 67 46 30 27 36 32 25 20 24 32 46 51 31 42 49 51 52 53 53 50 40 22 21 52 63 60 54 68 228 217 222 220 217 208 194 186
84 62 88 48 58 71 99 78 59 47 39 39 25 28 24 24 25 31 33 40 46 42 42 45 46 49 49 51 46 49 53 52 53 61 74 86 94 91 81 70 0 256 220 174
70 9 80 63 50 90 92 67 57 37 29 34 30 21 18 32 30 30 37 39 39 44 46 43 42 48 53 51 48 47 55 68 76 83 88 89 90 91 87 88 95 109 117 130
7 19 103 99 69 63 76 63 39 31 34 28 28 20 18 23 30 34 36 40 41 38 39 38 37 36 47 52 53 62 68 74 81 91 99 103 105 105 111 113 116 113 115 119
42 126 75 65 74 69 42 31 21 21 26 21 22 21 28 26 26 36 41 43 40 37 38 39 40 49 47 54 70 75 83 95 98 105 110 114 117 119 121 120 117 114 116 119
46 63 69 87 59 30 20 0 1 14 15 15 22 30 38 46 53 56 59 54 46 42 50 47 47 46 45 48 71 96 103 106 107 112 116 119 123 123 121 120 117 116 119 120
8 25 41 50 37 355 348 358 18 33 19 15 15 39 58 69 75 74 71 72 74 64 59 58 59 53 45 61 87 103 104 108 116 121 124 126 127 125 122 120 120 121 124 120
9 354 358 21 4 351 358 358 357 358 16 14 38 71 92 90 88 85 80 76 75 81 79 74 75 72 72 84 97 102 107 112 115 120 123 126 126 124 122 122 123 124 119 111
18 339 328 347 344 315 339 345 336 336 337 352 26 107 114 113 100 96 93 90 93 97 91 81 78 82 89 94 102 112 119 120 124 123 122 122 120 118 117 117 116 116 116 112
355 341 300 327 316 310 313 320 5 28 83 78 105 121 114 107 105 102 102 103 93 88 75 76 76 82 86 85 95 104 110 118 119 117 117 116 117 113 112 109 110 113 116 120
37 49 47 47 57 62 67 69 74 92 90 92 108 116 118 110 106 106 100 90 83 79 74 74 79 85 85 85 87 94 99 103 104 106 115 120 120 117 116 114 113 114 114 117
67 66 72 78 88 90 83 79 82 93 91 92 103 109 109 105 99 90 94 91 81 76 78 83 87 88 91 91 93 95 97 99 106 108 111 113 112 112 113 115 117 116 116 116
77 81 83 91 105 103 92 88 85 87 93 97 100 96 97 103 99 103 94 87 84 80 84 85 81 79 87 87 86 88 95 101 105 108 110 109 110 114 116 114 112 109 108 108
91 96 95 95 99 100 100 95 88 81 81 77 74 77 87 92 94 90 87 83 82 83 85 87 83 80 80 90 99 105 108 108 110 112 113 113 116 116 114 112 111 110 108 110
99 102 103 98 97 101 98 89 82 79 74 78 79 78 74 74 103 104 101 93 82 77 80 82 77 78 82 92 97 103 105 107 107 111 113 118 117 116 107 101 102 105 82 310
99 101 99 102 105 96 87 78 70 69 62 68 76 83 89 96 104 105 92 83 78 74 69 76 80 84 87 92 96 98 98 100 103 103 106 110 113 119 128 160 218 264 279 285
98 93 91 88 75 69 64 61 57 55 53 66 90 101 106 101 99 93 90 98 86 84 84 85 85 82 82 87 90 90 96 96 96 97 102 100 42 317 305 309 311 312 307 304
122 113 120 122 43 0 10 8 5 3 15 41 60 97 90 86 82 70 63 67 74 73 74 72 77 77 74 63 69 73 81 77 74 74 11 285 295 302 304 301 298 296 296 296
Height
1409 1397 1401 1405 1403 1406 1405 1404 1409 1401 1398 1394 1396 1391 1386 1381 1379 1381 1371 1362 1359 1353 1355 1358 1361 1368 1374 1378 1381 1386 1390 1391 1394 1399 1404 1408 1411 1415 1422 1427 1431 1435 1439 1443
1411 1407 1402 1401 1398 1396 1397 1395 1396 1404 1399 1401 1398 1393 1388 1385 1376 1376 1378 1373 1370 1364 1360 1362 1364 1368 1372 1377 1380 1383 1388 1393 1396 1399 1403 1406 1409 1413 1415 1420 1425 1430 1433 1437
1415 1409 1406 1403 1398 1394 1400 1402 1398 1402 1407 1401 1400 1399 1397 1392 1386 1386 1385 1380 1379 1375 1369 1364 1367 1368 1372 1375 1379 1382 1386 1387 1391 1395 1398 1403 1406 1411 1413 1415 1420 1423 1426 1430
1422 1415 1425 1400 1392 1392 1399 1406 1406 1405 1405 1404 1403 1401 1399 1396 1392 1389 1386 1385 1378 1375 1371 1370 1370 1369 1372 1374 1376 1381 1385 1388 1391 1392 1395 1399 1403 1405 1408 1413 1414 1417 1420 1422
1428 1427 1410 1401 1400 1401 1402 1414 1412 1410 1406 1403 1398 1396 1399 1400 1398 1395 1392 1387 1377 1375 1375 1375 1372 1373 1373 1372 1375 1380 1383 1386 1387 1389 1391 1394 1396 1399 1403 1406 1409 1411 1414 1416
1429 1422 1425 1403 1400 1402 1401 1406 1412 1410 1408 1408 1402 1404 1407 1402 1399 1396 1392 1387 1381 1380 1378 1376 1377 1376 1374 1374 1374 1376 1379 1381 1383 1384 1385 1385 1388 1391 1396 1399 1402 1405 1407 1409
1425 1427 1410 1401 1400 1399 1406 1415 1411 1409 1407 1407 1407 1409 1408 1404 1398 1394 1392 1388 1387 1386 1382 1378 1377 1378 1377 1373 1372 1374 1376 1377 1379 1381 1380 1380 1383 1386 1389 1394 1396 1398 1399 1401
1420 1425 1415 1403 1400 1403 1410 1410 1411 1409 1408 1408 1409 1408 1406 1404 1401 1396 1395 1393 1394 1390 1385 1382 1381 1380 1376 1375 1376 1376 1376 1373 1375 1376 1376 1376 1378 1378 1381 1385 1387 1389 1392 1392
1409 1409 1409 1408 1409 1409 1410 1411 1412 1411 1410 1410 1410 1409 1407 1405 1402 1398 1396 1394 1396 1395 1390 1387 1385 1383 1381 1380 1378 1376 1374 1374 1374 1373 1372 1372 1373 1374 1375 1378 1380 1382 1384 1384
1404 1410 1412 1413 1413 1413 1414 1415 1415 1415 1412 1411 1412 1410 1409 1407 1405 1401 1398 1397 1399 1395 1389 1386 1385 1386 1384 1383 1380 1381 1379 1376 1373 1372 1371 1370 1371 1372 1373 1373 1375 1377 1381 1381
1410 1415 1415 1418 1418 1419 1419 1418 1418 1418 1416 1414 1413 1410 1408 1406 1403 1402 1401 1401 1399 1396 1394 1394 1393 1391 1390 1385 1385 1384 1382 1380 1377 1375 1375 1373 1371 1372 1375 1379 1381 1382 1385 1385
1418 1419 1417 1421 1422 1421 1420 1421 1421 1420 1419 1417 1414 1412 1410 1408 1407 1405 1404 1403 1401 1399 1398 1398 1397 1395 1391 1389 1390 1388 1385 1384 1382 1380 1381 1379 1378 1377 1379 1381 1385 1388 1389 1392
1422 1421 1420 1422 1424 1424 1423 1423 1423 1422 1421 1419 1417 1415 1413 1411 1409 1408 1406 1405 1403 1402 1400 1399 1397 1395 1394 1393 1394 1394 1390 1386 1385 1386 1387 1385 1384 1387 1382 1387 1389 1395 1398 1400
1423 1423 1423 1423 1425 1427 1426 1425 1424 1424 1422 1420 1419 1418 1416 1414 1412 1410 1408 1407 1406 1405 1403 1401 1399 1398 1399 1398 1399 1395 1393 1391 1391 1392 1393 1392 1392 1391 1394 1393 1394 1400 1408 1412
1427 1426 1427 1427 1426 1426 1426 1426 1424 1423 1422 1421 1421 1419 1417 1416 1415 1414 1411 1410 1409 1409 1407 1406 1404 1403 1403 1402 1401 1400 1398 1397 1395 1399 1399 1401 1402 1401 1402 1403 1405 1405 1417 1421
1429 1430 1429 1428 1428 1428 1428 1427 1426 1425 1423 1423 1422 1421 1420 1419 1417 1415 1412 1412 1411 1410 1410 1409 1408 1409 1408 1407 1406 1405 1403 1403 1403 1404 1406 1407 1409 1408 1409 1410 1412 1417 1422 1426
1430 1430 1430 1430 1430 1429 1428 1427 1426 1425 1424 1424 1424 1424 1422 1421 1419 1418 1417 1416 1415 1414 1414 1414 1414 1413 1412 1410 1410 1409 1409 1409 1410 1412 1413 1415 1415 1416 1417 1418 1420 1422 1428 1429
1432 1431 1431 1430 1430 1429 1427 1426 1426 1424 1424 1425 1425 1424 1424 1423 1422 1422 1421 1421 1420 1420 1419 1418 1418 1416 1415 1415 1414 1414 1414 1414 1416 1417 1418 1421 1421 1422 1423 1425 1426 1427 1429 1433
1431 1430 1430 1429 1428 1427 1427 1427 1424 1426 1427 1427 1426 1426 1426 1426 1426 1426 1426 1425 1424 1423 1423 1422 1422 1421 1420 1420 1420 1420 1420 1420 1421 1422 1423 1425 1426 1428 1429 1430 1430 1431 1433 1436
1431 1430 1429 1428 1428 1428 1428 1427 1429 1429 1428 1429 1429 1429 1429 1429 1429 1429 1429 1427 1426 1426 1426 1426 1425 1424 1424 1424 1424 1424 1424 1425 1425 1426 1428 1428 1429 1430 1431 1432 1434 1436 1437 1438
1432 1432 1431 1431 1431 1431 1431 1432 1432 1431 1431 1432 1432 1432 1432 1432 1432 1432 1431 1429 1429 1429 1429 1429 1428 1428 1427 1427 1428 1428 1428 1428 1429 1429 1430 1432 1432 1433 1434 1436 1438 1439 1440 1441
1434 1434 1434 1434 1434 1434 1434 1434 1435 1435 1435 1435 1435 1435 1435 1434 1434 1434 1433 1432 1432 1432 1432 1431 1431 1430 1430 1431 1430 1431 1431 1431 1432 1432 1433 1435 1436 1437 1438 1439 1440 1441 1441 1442
1437 1437 1437 1438 1438 1438 1438 1438 1438 1438 1438 1438 1438 1438 1437 1437 1436 1436 1436 1436 1435 1435 1435 1434 1433 1433 1433 1433 1433 1434 1433 1434 1434 1435 1436 1437 1438 1439 1440 1441 1441 1442 1443 1443
1440 1440 1441 1442 1442 1442 1441 1441 1441 1441 1441 1440 1440 1440 1440 1439 1439 1439 1439 1439 1439 1439 1438 1436 1436 1436 1436 1436 1437 1437 1437 1437 1437 1438 1438 1439 1440 1440 1441 1441 1442 1442 1442 1442
1444 1444 1445 1445 1446 1445 1445 1445 1444 1444 1444 1443 1443 1443 1442 1442 1442 1442 1442 1441 1441 1441 1440 1439 1439 1439 1439 1439 1440 1440 1439 1439 1440 1441 1441 1441 1441 1441 1441 1441 1441 1442 1442 1442
1447 1447 1448 1448 1448 1448 1447 1447 1447 1446 1446 1445 1445 1445 1444 1444 1444 1444 1444 1443 1443 1443 1443 1442 1442 1442 1442 1442 1441 1441 1441 1442 1442 1442 1442 1442 1442 1441 1441 1441 1441 1441 1440 1440
1449 1449 1450 1450 1449 1449 1449 1449 1448 1448 1447 1446 1446 1446 1446 1446 1446 1446 1445 1445 1445 1445 1445 1444 1444 1444 1443 1443 1443 1443 1443 1442 1443 1443 1442 1442 1441 1441 1441 1440 1440 1440 1439 1438